Weather History for Olathe New Century, KS

Change the Weather History Date:

Saturday, January 26, 2013

  Actual Average Record
Temperature  
Mean Temperature 42 °F -  
Max Temperature 55 °F 37 °F 64 °F (2002)
Min Temperature 30 °F 20 °F 8 °F (2011)
Degree Days  
Heating Degree Days 22    
Moisture  
Dew Point 22 °F    
Average Humidity 49    
Maximum Humidity 72    
Minimum Humidity 27    
Precipitation  
Precipitation 0.00 in - - ()
Sea Level Pressure  
Sea Level Pressure 30.21 in    
Wind  
Wind Speed 6 mph (SE)    
Max Wind Speed 15 mph    
Max Gust Speed -    
Visibility 10 miles    
Events Rain , Snow    
Averages and records for this station are not official NWS values.
T = Trace of Precipitation, MM = Missing Value Source: NWS Daily Summary

Daily Weather History Graph

Daily Weather History Graph

Search for Another Location

Airport:

Trip Planner

Search our weather history database for the weather conditions in past years. The results will help you decide how hot, cold, wet, or windy it might be!

Date:

Astronomy

Jan. 26, 2013 Rise Set
Actual Time 7:30 AM CST 5:34 PM CST
Civil Twilight 7:01 AM CST 6:03 PM CST
Nautical Twilight 6:29 AM CST 6:35 PM CST
Astronomical Twilight 5:58 AM CST 7:06 PM CST
Moon 5:29 PM CST (1/26) 6:49 AM CST (1/26)
Length of Visible Light 11h 01m
Length of Day
10h 04m
Full, 100% of the Moon is Illuminated
Jan 26
Full
Jan 26
Full
Feb 3
Last Quarter
Feb 10
New
Feb 17
First Quarter

Hourly Weather History & Observations

Time (CST) Temp. Windchill Dew Point Humidity Pressure Visibility Wind Dir Wind Speed Gust Speed Precip Events Conditions
12:53 AM 32.0 °F - 21.0 °F 64% 30.27 in 10.0 mi Calm Calm - N/A   Clear
1:53 AM 30.0 °F - 21.0 °F 69% 30.26 in 10.0 mi Calm Calm - 0.00 in   Clear
2:53 AM 33.1 °F - 21.0 °F 61% 30.27 in 10.0 mi Calm Calm - N/A   Clear
3:53 AM 30.9 °F - 21.9 °F 69% 30.26 in 10.0 mi Calm Calm - N/A   Clear
4:53 AM 30.0 °F 24.1 °F 21.9 °F 72% 30.26 in 9.0 mi ENE 5.8 mph - 0.00 in Snow Light Snow
5:53 AM 34.0 °F 28.0 °F 21.9 °F 61% 30.27 in 10.0 mi East 6.9 mph - 0.00 in   Scattered Clouds
6:53 AM 34.0 °F 27.2 °F 21.9 °F 61% 30.29 in 10.0 mi East 8.1 mph - N/A   Clear
7:53 AM 33.1 °F 26.9 °F 21.9 °F 64% 30.30 in 10.0 mi ESE 6.9 mph - N/A   Clear
8:53 AM 37.0 °F 30.4 °F 23.0 °F 57% 30.29 in 10.0 mi SE 9.2 mph - N/A   Clear
9:53 AM 39.9 °F 32.9 °F 23.0 °F 51% 30.30 in 10.0 mi SE 11.5 mph - N/A   Clear
10:53 AM 45.0 °F 40.1 °F 21.9 °F 40% 30.30 in 10.0 mi SE 9.2 mph - N/A   Clear
11:53 AM 48.0 °F - 21.9 °F 36% 30.27 in 10.0 mi SE 12.7 mph - 0.00 in   Clear
12:53 PM 51.1 °F - 21.9 °F 32% 30.23 in 10.0 mi SSE 13.8 mph - N/A   Partly Cloudy
1:53 PM 54.0 °F - 21.9 °F 29% 30.19 in 10.0 mi SSE 13.8 mph - 0.00 in   Clear
2:53 PM 55.0 °F - 21.0 °F 27% 30.17 in 10.0 mi SE 15.0 mph - 0.00 in   Clear
3:53 PM 55.0 °F - 23.0 °F 29% 30.16 in 10.0 mi SE 11.5 mph - N/A   Partly Cloudy
4:53 PM 53.1 °F - 23.0 °F 31% 30.14 in 10.0 mi SE 10.4 mph - N/A   Clear
5:53 PM 48.9 °F - 21.9 °F 35% 30.14 in 10.0 mi SE 8.1 mph - N/A   Clear
6:53 PM 46.0 °F 41.9 °F 21.9 °F 39% 30.14 in 10.0 mi East 8.1 mph - N/A   Clear
8:53 PM 43.0 °F 38.8 °F 25.0 °F 49% 30.13 in 10.0 mi ESE 6.9 mph - N/A   Clear
9:53 PM 43.0 °F 36.8 °F 25.0 °F 49% 30.10 in 10.0 mi SE 11.5 mph - N/A   Clear
10:53 PM 46.0 °F 40.2 °F 23.0 °F 40% 30.09 in 10.0 mi SSE 12.7 mph - N/A   Mostly Cloudy
11:53 PM 44.1 °F 38.6 °F 27.0 °F 51% 30.09 in 10.0 mi SSE 10.4 mph - 0.00 in Rain Light Rain